sat.trackr.live / text

‹ back to catalog

STARLINK-33603

NORAD 63282 · 2025-053T

PAYLOAD ACTIVE UNKNOWN

§ Identity

Operator
Country
US
Launch date
2025-03-15
Launch site
AFETR
Launch vehicle
Mass (kg)
RCS (m²)

Purposes: comms

External: N2YO · Heavens-Above · Gunter

§ Orbital elements

Epoch: 2026-05-25T02:03:09.754848Z

Period
94.27 min
Inclination
42.9981°
Eccentricity
0.0000995
Mean motion
15.27589230 rev/d
Perigee alt
482.3 km
Apogee alt
483.7 km
Semi-major
6,861.2 km
B*
4.6767e-4
RAAN
170.6232°
Arg perigee
297.8235°
Mean anomaly
62.2516°
Rev number
6,787

§ Raw data

STARLINK-336031 63282U 25053T   26145.08552957  .00012633  00000+0  46767-3 0  99922 63282  42.9981 170.6232 0000995 297.8235  62.2516 15.27589230 67878

JSON: /api/v1/satellites/63282 · /tle

For live sub-satellite position, see the globe view (requires WebGL).

§ Visibility from observer

Set your observer location to see the next 7 days of passes ≥ 10°. The values pass through the URL so the page stays shareable.

No JS? Fill the form by hand. The geolocation button needs JavaScript.